Eufaula, AL

4:55 AM CDT on May 21, 2018 (GMT -0500)
Weedon

Weather History for KEUF - October, 2012

Change the Weather History Date:

Friday, October 26, 2012

  Actual Average (KLSF) Record (KLSF)
Temperature  
Mean Temperature 72 °F -  
Max Temperature 84 °F 74 °F 88 °F (2010)
Min Temperature 57 °F 48 °F 31 °F (2013)
Cooling Degree Days 6    
Growing Degree Days 22 (Base 50)    
Moisture  
Dew Point 59 °F    
Average Humidity 73    
Maximum Humidity 93    
Minimum Humidity 38    
Precipitation  
Precipitation 0.00 in - - ()
Sea Level Pressure  
Sea Level Pressure 29.92 in    
Wind  
Wind Speed 3 mph (NE)    
Max Wind Speed 9 mph    
Max Gust Speed -    
Visibility 10 miles    
Events      
Averages and records for this station are not official NWS values.
T = Trace of Precipitation, MM = Missing Value Source: NWS Daily Summary

Daily Weather History Graph

Daily Weather History Graph

Search for Another Location

Airport or City:

Astronomy

Oct. 26, 2012 Rise Set
Actual Time 6:52 AM CDT 5:55 PM CDT
Civil Twilight 6:27 AM CDT 6:20 PM CDT
Nautical Twilight 5:58 AM CDT 6:49 PM CDT
Astronomical Twilight 5:30 AM CDT 7:17 PM CDT
Moon 4:04 PM CDT (10/26) 3:57 AM CDT (10/26)
Length of Visible Light 11h 53m
Length of Day
11h 03m
Waxing Gibbous, 91% of the Moon is Illuminated
Oct 26
Waxing Gibbous
Oct 29
Full
Nov 6
Last Quarter
Nov 13
New
Nov 20
First Quarter

Hourly Weather History & Observations

Time (CDT) Temp. Heat Index Dew Point Humidity Pressure Visibility Wind Dir Wind Speed Gust Speed Precip Events Conditions
12:58 AM 69.1 °F - 61.0 °F 75% 29.96 in 10.0 mi East 4.6 mph - N/A   Clear
1:58 AM 66.9 °F - 61.0 °F 81% 29.96 in 10.0 mi Calm Calm - N/A   Clear
2:58 AM 63.0 °F - 60.1 °F 90% 29.95 in 10.0 mi Calm Calm - N/A   Clear
3:58 AM 62.1 °F - 59.0 °F 90% 29.95 in 10.0 mi North 3.5 mph - N/A   Clear
4:58 AM 62.1 °F - 60.1 °F 93% 29.95 in 10.0 mi Calm Calm - N/A   Clear
5:58 AM 62.1 °F - 60.1 °F 93% 29.96 in 10.0 mi Calm Calm - N/A   Clear
6:58 AM 60.1 °F - 57.9 °F 93% 29.97 in 6.0 mi Calm Calm - N/A   Clear
7:58 AM 64.9 °F - 61.0 °F 87% 29.99 in 10.0 mi Variable 3.5 mph - 0.00 in   Clear
9:58 AM 73.9 °F - 63.0 °F 68% 30.01 in 10.0 mi ENE 6.9 mph - N/A   Clear
10:58 AM 77.0 °F - 64.0 °F 64% 30.00 in 10.0 mi Variable 4.6 mph - N/A   Partly Cloudy
11:58 AM 82.0 °F 82.7 °F 61.0 °F 49% 29.96 in 10.0 mi Variable 4.6 mph - N/A   Clear
12:58 PM 84.0 °F 83.0 °F 55.9 °F 38% 29.93 in 10.0 mi ENE 8.1 mph - N/A   Clear
1:58 PM 84.0 °F 83.3 °F 57.0 °F 40% 29.89 in 10.0 mi Variable 6.9 mph - N/A   Clear
2:58 PM 84.0 °F 83.8 °F 59.0 °F 43% 29.88 in 10.0 mi NNE 9.2 mph - N/A   Partly Cloudy
3:58 PM 84.0 °F 83.8 °F 59.0 °F 43% 29.87 in 10.0 mi Variable 6.9 mph - N/A   Partly Cloudy
4:58 PM 82.0 °F 82.0 °F 57.9 °F 44% 29.86 in 10.0 mi Calm Calm - N/A   Clear
5:58 PM 72.0 °F - 61.0 °F 68% 29.87 in 10.0 mi Calm Calm - N/A   Clear
6:58 PM 66.0 °F - 60.1 °F 81% 29.88 in 10.0 mi Calm Calm - N/A   Clear
7:58 PM 64.0 °F - 59.0 °F 84% 29.87 in 10.0 mi Calm Calm - N/A   Clear
8:58 PM 62.1 °F - 57.9 °F 86% 29.88 in 10.0 mi Calm Calm - N/A   Clear
9:58 PM 61.0 °F - 57.0 °F 87% 29.87 in 10.0 mi Calm Calm - N/A   Clear
10:58 PM 59.0 °F - 57.0 °F 93% 29.87 in 10.0 mi Calm Calm - N/A   Clear
11:58 PM 57.9 °F - 55.9 °F 93% 29.87 in 10.0 mi Calm Calm - N/A   Clear